contact:dominique.lefevre@mio.osupytheas.fr, maurice.libes@osupytheas.fr, didier.mallarino@osupytheas.fr
Project:EMSO http://www.emso-fr.org/EMSO-France
Depth: 2436.0 m
Title:EMSO Ligure Ouest : Data MII capteur MICROCAT
DateTime_Computer,Latitude,Longitude,Temperature,Conductivity,Pressure,DateTime_Instrument
DateTime_Computer,Latitude,Longitude,degC,S m-1,dbar,DateTime_Instrument
2020-09-06T00:00:16Z,42.805,6.029,13.2970,4.59973,2470.11,2020-9-06T02:01:07Z
2020-09-06T00:03:19Z,42.805,6.029,13.2971,4.59974,2470.171,2020-9-06T02:04:10Z
2020-09-06T00:06:23Z,42.805,6.029,13.2968,4.59976,2470.147,2020-9-06T02:07:14Z
2020-09-06T00:09:27Z,42.805,6.029,13.2971,4.59974,2470.133,2020-9-06T02:10:18Z
2020-09-06T00:12:29Z,42.805,6.029,13.2971,4.59976,2470.11,2020-9-06T02:13:20Z
2020-09-06T00:15:31Z,42.805,6.029,13.2970,4.59975,2470.171,2020-9-06T02:16:22Z
2020-09-06T00:18:35Z,42.805,6.029,13.2971,4.59975,2470.11,2020-9-06T02:19:26Z
2020-09-06T00:21:39Z,42.805,6.029,13.2973,4.59973,2470.087,2020-9-06T02:22:30Z
2020-09-06T00:24:42Z,42.805,6.029,13.2968,4.59974,2470.11,2020-9-06T02:25:33Z
2020-09-06T00:27:46Z,42.805,6.029,13.2970,4.59976,2470.124,2020-9-06T02:28:37Z
2020-09-06T00:30:51Z,42.805,6.029,13.2968,4.59976,2470.11,2020-9-06T02:31:42Z
2020-09-06T00:33:55Z,42.805,6.029,13.2969,4.59976,2470.124,2020-9-06T02:34:46Z
2020-09-06T00:36:58Z,42.805,6.029,13.2970,4.59974,2470.096,2020-9-06T02:37:49Z
2020-09-06T00:40:00Z,42.805,6.029,13.2972,4.59976,2470.1,2020-9-06T02:40:51Z
2020-09-06T00:43:01Z,42.805,6.029,13.2974,4.59989,2470.1,2020-9-06T02:43:52Z
2020-09-06T00:46:02Z,42.805,6.029,13.2968,4.59981,2470.087,2020-9-06T02:46:53Z
2020-09-06T00:49:04Z,42.805,6.029,13.2969,4.59978,2470.133,2020-9-06T02:49:55Z
2020-09-06T00:52:06Z,42.805,6.029,13.2972,4.59973,2470.1,2020-9-06T02:52:57Z
2020-09-06T00:55:08Z,42.805,6.029,13.2970,4.59975,2470.124,2020-9-06T02:55:59Z
2020-09-06T00:58:09Z,42.805,6.029,13.2972,4.59976,2470.1,2020-9-06T02:59:00Z
2020-09-06T01:01:12Z,42.805,6.029,13.2971,4.59976,2470.133,2020-9-06T03:02:03Z
2020-09-06T01:04:16Z,42.805,6.029,13.2971,4.59978,2470.11,2020-9-06T03:05:07Z
2020-09-06T01:07:20Z,42.805,6.029,13.2972,4.59975,2470.124,2020-9-06T03:08:09Z
2020-09-06T01:10:21Z,42.805,6.029,13.2974,4.59974,2470.11,2020-9-06T03:11:12Z
2020-09-06T01:13:24Z,42.805,6.029,13.2974,4.59981,2470.124,2020-9-06T03:14:15Z
2020-09-06T01:16:27Z,42.805,6.029,13.2976,4.59982,2470.087,2020-9-06T03:17:17Z
2020-09-06T01:19:31Z,42.805,6.029,13.2967,4.59979,2470.087,2020-9-06T03:20:22Z
2020-09-06T01:22:36Z,42.805,6.029,13.2970,4.59987,2470.11,2020-9-06T03:23:26Z
2020-09-06T01:25:38Z,42.805,6.029,13.2970,4.59977,2470.087,2020-9-06T03:26:29Z
2020-09-06T01:28:42Z,42.805,6.029,13.2973,4.59976,2470.11,2020-9-06T03:29:33Z
2020-09-06T01:31:46Z,42.805,6.029,13.2974,4.59981,2470.063,2020-9-06T03:32:37Z
2020-09-06T01:34:50Z,42.805,6.029,13.2973,4.59982,2470.11,2020-9-06T03:35:41Z
2020-09-06T01:37:52Z,42.805,6.029,13.2974,4.59976,2470.077,2020-9-06T03:38:43Z
2020-09-06T01:40:57Z,42.805,6.029,13.2974,4.59981,2470.077,2020-9-06T03:41:48Z
2020-09-06T01:44:01Z,42.805,6.029,13.2968,4.59978,2470.087,2020-9-06T03:44:52Z
2020-09-06T01:47:04Z,42.805,6.029,13.2972,4.59978,2470.077,2020-9-06T03:47:55Z
2020-09-06T01:50:08Z,42.805,6.029,13.2976,4.59979,2470.077,2020-9-06T03:50:59Z
2020-09-06T01:53:12Z,42.805,6.029,13.2974,4.59978,2470.063,2020-9-06T03:54:03Z
2020-09-06T01:56:15Z,42.805,6.029,13.2971,4.59978,2470.063,2020-9-06T03:57:06Z
2020-09-06T01:59:17Z,42.805,6.029,13.2974,4.59976,2470.087,2020-9-06T04:00:08Z
2020-09-06T02:02:20Z,42.805,6.029,13.2974,4.59981,2470.063,2020-9-06T04:03:11Z
2020-09-06T02:05:25Z,42.805,6.029,13.2973,4.59978,2470.11,2020-9-06T04:06:16Z
2020-09-06T02:08:30Z,42.805,6.029,13.2970,4.59978,2470.077,2020-9-06T04:09:21Z
2020-09-06T02:11:31Z,42.805,6.029,13.2970,4.59976,2470.03,2020-9-06T04:12:22Z
2020-09-06T02:14:35Z,42.805,6.029,13.2974,4.59986,2470.017,2020-9-06T04:15:26Z
2020-09-06T02:17:36Z,42.805,6.029,13.2971,4.59978,2470.077,2020-9-06T04:18:27Z
2020-09-06T02:20:38Z,42.805,6.029,13.2973,4.59976,2470.03,2020-9-06T04:21:29Z
2020-09-06T02:23:41Z,42.805,6.029,13.2971,4.59978,2470.053,2020-9-06T04:24:31Z
2020-09-06T02:26:42Z,42.805,6.029,13.2969,4.59979,2470.003,2020-9-06T04:27:33Z
2020-09-06T02:29:44Z,42.805,6.029,13.2971,4.59976,2470.04,2020-9-06T04:30:35Z
2020-09-06T02:32:47Z,42.805,6.029,13.2976,4.59974,2470.053,2020-9-06T04:33:38Z
2020-09-06T02:35:51Z,42.805,6.029,13.2969,4.59989,2470.063,2020-9-06T04:36:42Z
2020-09-06T02:38:52Z,42.805,6.029,13.2972,4.59978,2470.04,2020-9-06T04:39:43Z
2020-09-06T02:41:57Z,42.805,6.029,13.2970,4.59978,2470.017,2020-9-06T04:42:48Z
2020-09-06T02:44:58Z,42.805,6.029,13.2973,4.59996,2470.077,2020-9-06T04:45:49Z
2020-09-06T02:48:01Z,42.805,6.029,13.2968,4.59974,2470.063,2020-9-06T04:48:52Z
2020-09-06T02:51:03Z,42.805,6.029,13.2970,4.59983,2470.063,2020-9-06T04:51:54Z
2020-09-06T02:54:06Z,42.805,6.029,13.2973,4.59984,2470.017,2020-9-06T04:54:56Z
2020-09-06T02:57:08Z,42.805,6.029,13.2970,4.59978,2470.04,2020-9-06T04:57:59Z
2020-09-06T03:00:09Z,42.805,6.029,13.2966,4.59990,2470.017,2020-9-06T05:01:00Z
2020-09-06T03:03:11Z,42.805,6.029,13.2973,4.59982,2470.017,2020-9-06T05:04:02Z
2020-09-06T03:06:15Z,42.805,6.029,13.2972,4.59979,2470.03,2020-9-06T05:07:06Z
2020-09-06T03:09:18Z,42.805,6.029,13.2971,4.59978,2470.007,2020-9-06T05:10:09Z
2020-09-06T03:12:22Z,42.805,6.029,13.2968,4.59984,2470.017,2020-9-06T05:13:13Z
2020-09-06T03:15:26Z,42.805,6.029,13.2973,4.59976,2470.03,2020-9-06T05:16:17Z
2020-09-06T03:18:27Z,42.805,6.029,13.2967,4.59976,2470.04,2020-9-06T05:19:18Z
2020-09-06T03:21:29Z,42.805,6.029,13.2967,4.59987,2470.03,2020-9-06T05:22:20Z
2020-09-06T03:24:31Z,42.805,6.029,13.2971,4.59987,2470.017,2020-9-06T05:25:22Z
2020-09-06T03:27:36Z,42.805,6.029,13.2972,4.60009,2470.053,2020-9-06T05:28:27Z
2020-09-06T03:30:40Z,42.805,6.029,13.2974,4.59983,2470.03,2020-9-06T05:31:30Z
2020-09-06T03:33:42Z,42.805,6.029,13.2969,4.60006,2470.03,2020-9-06T05:34:33Z
2020-09-06T03:36:45Z,42.805,6.029,13.2972,4.60001,2470.04,2020-9-06T05:37:36Z
2020-09-06T03:39:48Z,42.805,6.029,13.2976,4.59985,2469.993,2020-9-06T05:40:39Z
2020-09-06T03:42:51Z,42.805,6.029,13.2973,4.59997,2470.007,2020-9-06T05:43:42Z
2020-09-06T03:45:53Z,42.805,6.029,13.2974,4.60003,2470.017,2020-9-06T05:46:44Z
2020-09-06T03:48:56Z,42.805,6.029,13.2974,4.60016,2470.017,2020-9-06T05:49:47Z
2020-09-06T03:51:57Z,42.805,6.029,13.2974,4.60018,2470.017,2020-9-06T05:52:48Z
2020-09-06T03:54:59Z,42.805,6.029,13.2972,4.60006,2470.017,2020-9-06T05:55:50Z
2020-09-06T03:58:04Z,42.805,6.029,13.2974,4.59983,2469.993,2020-9-06T05:58:54Z
2020-09-06T04:01:06Z,42.805,6.029,13.2974,4.59988,2470.03,2020-9-06T06:01:57Z
2020-09-06T04:04:10Z,42.805,6.029,13.2974,4.59986,2470.053,2020-9-06T06:05:01Z
2020-09-06T04:07:11Z,42.805,6.029,13.2973,4.59986,2470.03,2020-9-06T06:08:02Z
2020-09-06T04:10:12Z,42.805,6.029,13.2974,4.60035,2470.03,2020-9-06T06:11:03Z
2020-09-06T04:13:15Z,42.805,6.029,13.2976,4.60021,2469.993,2020-9-06T06:14:06Z
2020-09-06T04:16:18Z,42.805,6.029,13.2981,4.60010,2470.053,2020-9-06T06:17:09Z
2020-09-06T04:19:20Z,42.805,6.029,13.2972,4.60008,2470.03,2020-9-06T06:20:11Z
2020-09-06T04:22:25Z,42.805,6.029,13.2977,4.60016,2470.017,2020-9-06T06:23:16Z
2020-09-06T04:25:29Z,42.805,6.029,13.2976,4.59986,2470.017,2020-9-06T06:26:20Z
2020-09-06T04:28:33Z,42.805,6.029,13.2973,4.60003,2470.04,2020-9-06T06:29:23Z
2020-09-06T04:31:37Z,42.805,6.029,13.2978,4.60011,2470.03,2020-9-06T06:32:28Z
2020-09-06T04:34:41Z,42.805,6.029,13.2976,4.60041,2470.017,2020-9-06T06:35:32Z
2020-09-06T04:37:43Z,42.805,6.029,13.3108,4.60031,2470.017,2020-9-06T06:38:34Z
2020-09-06T04:40:47Z,42.805,6.029,13.3049,4.60097,2470.04,2020-9-06T06:41:38Z
2020-09-06T04:43:50Z,42.805,6.029,13.2977,4.59994,2470.017,2020-9-06T06:44:41Z
2020-09-06T04:46:54Z,42.805,6.029,13.2975,4.60003,2470.03,2020-9-06T06:47:45Z
2020-09-06T04:49:57Z,42.805,6.029,13.2975,4.60026,2470.04,2020-9-06T06:50:48Z
2020-09-06T04:52:59Z,42.805,6.029,13.2985,4.60047,2470.053,2020-9-06T06:53:50Z
2020-09-06T04:56:01Z,42.805,6.029,13.2993,4.60052,2470.053,2020-9-06T06:56:52Z
2020-09-06T04:59:04Z,42.805,6.029,13.2995,4.60049,2470.007,2020-9-06T06:59:55Z
2020-09-06T05:02:08Z,42.805,6.029,13.2996,4.60024,2470.053,2020-9-06T07:02:59Z
2020-09-06T05:05:10Z,42.805,6.029,13.2994,4.60028,2470.053,2020-9-06T07:06:01Z
2020-09-06T05:08:13Z,42.805,6.029,13.2979,4.60027,2470.017,2020-9-06T07:09:04Z
2020-09-06T05:11:15Z,42.805,6.029,13.2984,4.60044,2470.053,2020-9-06T07:12:06Z
2020-09-06T05:14:16Z,42.805,6.029,13.3104,4.60002,2470.053,2020-9-06T07:15:07Z
2020-09-06T05:17:21Z,42.805,6.029,13.2984,4.60066,2470.053,2020-9-06T07:18:11Z
2020-09-06T05:20:24Z,42.805,6.029,13.2989,4.60092,2470.04,2020-9-06T07:21:15Z
2020-09-06T05:23:27Z,42.805,6.029,13.3074,4.60154,2470.03,2020-9-06T07:24:18Z
2020-09-06T05:26:31Z,42.805,6.029,13.3096,4.60056,2470.03,2020-9-06T07:27:22Z
2020-09-06T05:29:34Z,42.805,6.029,13.2979,4.60082,2470.053,2020-9-06T07:30:25Z
2020-09-06T05:32:36Z,42.805,6.029,13.2983,4.60045,2470.063,2020-9-06T07:33:27Z
2020-09-06T05:35:40Z,42.805,6.029,13.2981,4.60038,2470.077,2020-9-06T07:36:31Z
2020-09-06T05:38:43Z,42.805,6.029,13.2982,4.59991,2470.087,2020-9-06T07:39:34Z
2020-09-06T05:41:47Z,42.805,6.029,13.2969,4.59983,2470.087,2020-9-06T07:42:38Z
2020-09-06T05:44:51Z,42.805,6.029,13.2974,4.59978,2470.04,2020-9-06T07:45:42Z
2020-09-06T05:47:56Z,42.805,6.029,13.2967,4.59977,2470.063,2020-9-06T07:48:47Z
2020-09-06T05:50:57Z,42.805,6.029,13.2971,4.59987,2470.087,2020-9-06T07:51:48Z
2020-09-06T05:53:59Z,42.805,6.029,13.2971,4.59993,2470.077,2020-9-06T07:54:50Z
2020-09-06T05:57:02Z,42.805,6.029,13.2972,4.59979,2470.077,2020-9-06T07:57:53Z
2020-09-06T06:00:07Z,42.805,6.029,13.2975,4.59981,2470.063,2020-9-06T08:00:57Z
2020-09-06T06:03:10Z,42.805,6.029,13.3001,4.60000,2470.017,2020-9-06T08:04:01Z
2020-09-06T06:06:14Z,42.805,6.029,13.3000,4.60025,2470.087,2020-9-06T08:07:05Z
2020-09-06T06:09:16Z,42.805,6.029,13.3012,4.60042,2470.063,2020-9-06T08:10:07Z
2020-09-06T06:12:21Z,42.805,6.029,13.3015,4.60033,2470.063,2020-9-06T08:13:12Z
2020-09-06T06:15:25Z,42.805,6.029,13.3016,4.60022,2470.053,2020-9-06T08:16:16Z
2020-09-06T06:18:27Z,42.805,6.029,13.2996,4.60035,2470.087,2020-9-06T08:19:17Z
2020-09-06T06:21:30Z,42.805,6.029,13.3016,4.60070,2470.11,2020-9-06T08:22:21Z
2020-09-06T06:24:34Z,42.805,6.029,13.3014,4.60019,2470.053,2020-9-06T08:25:25Z
2020-09-06T06:27:39Z,42.805,6.029,13.3021,4.60033,2470.1,2020-9-06T08:28:29Z
2020-09-06T06:30:42Z,42.805,6.029,13.3018,4.60045,2470.1,2020-9-06T08:31:33Z
2020-09-06T06:33:44Z,42.805,6.029,13.3013,4.60060,2470.1,2020-9-06T08:34:35Z
2020-09-06T06:36:47Z,42.805,6.029,13.3003,4.60047,2470.1,2020-9-06T08:37:38Z
2020-09-06T06:39:50Z,42.805,6.029,13.3000,4.60025,2470.087,2020-9-06T08:40:41Z
2020-09-06T06:42:53Z,42.805,6.029,13.3004,4.60047,2470.063,2020-9-06T08:43:44Z
2020-09-06T06:45:57Z,42.805,6.029,13.3006,4.60052,2470.11,2020-9-06T08:46:48Z
2020-09-06T06:49:00Z,42.805,6.029,13.2996,4.60066,2470.1,2020-9-06T08:49:51Z
2020-09-06T06:52:04Z,42.805,6.029,13.3013,4.60054,2470.11,2020-9-06T08:52:55Z
2020-09-06T06:55:07Z,42.805,6.029,13.2986,4.60056,2470.04,2020-9-06T08:55:58Z
2020-09-06T06:58:08Z,42.805,6.029,13.3007,4.60031,2470.147,2020-9-06T08:58:59Z
2020-09-06T07:01:13Z,42.805,6.029,13.2997,4.60049,2470.063,2020-9-06T09:02:04Z
2020-09-06T07:04:16Z,42.805,6.029,13.3014,4.60045,2470.11,2020-9-06T09:05:07Z
2020-09-06T07:07:18Z,42.805,6.029,13.2995,4.60044,2470.1,2020-9-06T09:08:09Z
2020-09-06T07:10:22Z,42.805,6.029,13.3015,4.60069,2470.133,2020-9-06T09:11:13Z
2020-09-06T07:13:25Z,42.805,6.029,13.3016,4.60024,2470.1,2020-9-06T09:14:16Z
2020-09-06T07:16:29Z,42.805,6.029,13.3017,4.60019,2470.11,2020-9-06T09:17:20Z
2020-09-06T07:19:32Z,42.805,6.029,13.3017,4.60013,2470.147,2020-9-06T09:20:23Z
2020-09-06T07:22:35Z,42.805,6.029,13.3013,4.60026,2470.11,2020-9-06T09:23:26Z
2020-09-06T07:25:39Z,42.805,6.029,13.3025,4.60032,2470.11,2020-9-06T09:26:30Z
2020-09-06T07:28:43Z,42.805,6.029,13.3044,4.60005,2470.124,2020-9-06T09:29:34Z
2020-09-06T07:31:46Z,42.805,6.029,13.3024,4.60007,2470.124,2020-9-06T09:32:37Z
2020-09-06T07:34:50Z,42.805,6.029,13.2999,4.60019,2470.087,2020-9-06T09:35:41Z
2020-09-06T07:37:52Z,42.805,6.029,13.3004,4.60021,2470.124,2020-9-06T09:38:43Z
2020-09-06T07:40:56Z,42.805,6.029,13.3038,4.60039,2470.147,2020-9-06T09:41:47Z
2020-09-06T07:43:57Z,42.805,6.029,13.3021,4.60012,2470.11,2020-9-06T09:44:48Z
2020-09-06T07:47:01Z,42.805,6.029,13.3038,4.60043,2470.171,2020-9-06T09:47:52Z
2020-09-06T07:50:06Z,42.805,6.029,13.3017,4.60006,2470.156,2020-9-06T09:50:57Z
2020-09-06T07:53:09Z,42.805,6.029,13.3028,4.60024,2470.171,2020-9-06T09:54:00Z
2020-09-06T07:56:13Z,42.805,6.029,13.3017,4.60007,2470.171,2020-9-06T09:57:04Z
2020-09-06T07:59:17Z,42.805,6.029,13.3020,4.60023,2470.171,2020-9-06T10:00:08Z
2020-09-06T08:02:20Z,42.805,6.029,13.3015,4.60061,2470.171,2020-9-06T10:03:11Z
2020-09-06T08:05:24Z,42.805,6.029,13.3017,4.60006,2470.171,2020-9-06T10:06:15Z
2020-09-06T08:08:29Z,42.805,6.029,13.3021,4.60008,2470.147,2020-9-06T10:09:20Z
2020-09-06T08:11:31Z,42.805,6.029,13.3015,4.60011,2470.133,2020-9-06T10:12:22Z
2020-09-06T08:14:34Z,42.805,6.029,13.3020,4.60046,2470.147,2020-9-06T10:15:25Z
2020-09-06T08:17:39Z,42.805,6.029,13.2997,4.60024,2470.147,2020-9-06T10:18:30Z
2020-09-06T08:20:40Z,42.805,6.029,13.3021,4.60009,2470.147,2020-9-06T10:21:31Z
2020-09-06T08:23:43Z,42.805,6.029,13.3004,4.60061,2470.133,2020-9-06T10:24:34Z
2020-09-06T08:26:47Z,42.805,6.029,13.3010,4.60015,2470.171,2020-9-06T10:27:38Z
2020-09-06T08:29:49Z,42.805,6.029,13.3017,4.60013,2470.147,2020-9-06T10:30:40Z
2020-09-06T08:32:52Z,42.805,6.029,13.3034,4.59997,2470.133,2020-9-06T10:33:43Z
2020-09-06T08:35:57Z,42.805,6.029,13.3046,4.60027,2470.194,2020-9-06T10:36:48Z
2020-09-06T08:38:58Z,42.805,6.029,13.2998,4.60053,2470.156,2020-9-06T10:39:49Z
2020-09-06T08:42:01Z,42.805,6.029,13.3009,4.60026,2470.147,2020-9-06T10:42:52Z
2020-09-06T08:45:05Z,42.805,6.029,13.3011,4.60034,2470.133,2020-9-06T10:45:56Z
2020-09-06T08:48:08Z,42.805,6.029,13.3014,4.60044,2470.194,2020-9-06T10:48:59Z
2020-09-06T08:51:10Z,42.805,6.029,13.3039,4.60003,2470.18,2020-9-06T10:52:01Z
2020-09-06T08:54:13Z,42.805,6.029,13.3037,4.60014,2470.156,2020-9-06T10:55:04Z
2020-09-06T08:57:16Z,42.805,6.029,13.3041,4.60009,2470.194,2020-9-06T10:58:07Z
2020-09-06T09:00:20Z,42.805,6.029,13.3044,4.60018,2470.147,2020-9-06T11:01:11Z
2020-09-06T09:03:23Z,42.805,6.029,13.3048,4.60008,2470.124,2020-9-06T11:04:14Z
2020-09-06T09:06:25Z,42.805,6.029,13.3043,4.60019,2470.147,2020-9-06T11:07:16Z
2020-09-06T09:09:30Z,42.805,6.029,13.3036,4.59991,2470.171,2020-9-06T11:10:21Z
2020-09-06T09:12:33Z,42.805,6.029,13.3002,4.60004,2470.156,2020-9-06T11:13:24Z
2020-09-06T09:15:38Z,42.805,6.029,13.2997,4.60021,2470.147,2020-9-06T11:16:29Z
2020-09-06T09:18:42Z,42.805,6.029,13.3009,4.60027,2470.171,2020-9-06T11:19:33Z
2020-09-06T09:21:45Z,42.805,6.029,13.3011,4.60038,2470.11,2020-9-06T11:22:36Z
2020-09-06T09:24:48Z,42.805,6.029,13.3026,4.60024,2470.147,2020-9-06T11:25:39Z
2020-09-06T09:27:53Z,42.805,6.029,13.3006,4.60007,2470.147,2020-9-06T11:28:44Z
2020-09-06T09:30:57Z,42.805,6.029,13.3011,4.60026,2470.171,2020-9-06T11:31:48Z
2020-09-06T09:34:01Z,42.805,6.029,13.3029,4.60003,2470.156,2020-9-06T11:34:52Z
2020-09-06T09:37:04Z,42.805,6.029,13.3028,4.60029,2470.133,2020-9-06T11:37:55Z
2020-09-06T09:40:07Z,42.805,6.029,13.3028,4.60016,2470.156,2020-9-06T11:40:58Z
2020-09-06T09:43:12Z,42.805,6.029,13.3046,4.60010,2470.194,2020-9-06T11:44:03Z
2020-09-06T09:46:16Z,42.805,6.029,13.3054,4.60011,2470.171,2020-9-06T11:47:07Z
2020-09-06T09:49:20Z,42.805,6.029,13.3027,4.60011,2470.156,2020-9-06T11:50:11Z
2020-09-06T09:52:24Z,42.805,6.029,13.3046,4.60010,2470.171,2020-9-06T11:53:15Z
2020-09-06T09:55:26Z,42.805,6.029,13.3035,4.60004,2470.18,2020-9-06T11:56:17Z
2020-09-06T09:58:27Z,42.805,6.029,13.3025,4.60014,2470.171,2020-9-06T11:59:18Z
2020-09-06T10:01:32Z,42.805,6.029,13.3053,4.60039,2470.18,2020-9-06T12:02:22Z
2020-09-06T10:04:36Z,42.805,6.029,13.3043,4.60036,2470.156,2020-9-06T12:05:27Z
2020-09-06T10:07:38Z,42.805,6.029,13.3056,4.60024,2470.171,2020-9-06T12:08:29Z
2020-09-06T10:10:41Z,42.805,6.029,13.3050,4.60024,2470.156,2020-9-06T12:11:32Z
2020-09-06T10:13:45Z,42.805,6.029,13.3052,4.60005,2470.133,2020-9-06T12:14:36Z
2020-09-06T10:16:50Z,42.805,6.029,13.3035,4.60020,2470.171,2020-9-06T12:17:41Z
2020-09-06T10:19:53Z,42.805,6.029,13.3043,4.60009,2470.147,2020-9-06T12:20:44Z
2020-09-06T10:22:56Z,42.805,6.029,13.3050,4.60022,2470.133,2020-9-06T12:23:47Z
2020-09-06T10:26:01Z,42.805,6.029,13.3026,4.60019,2470.11,2020-9-06T12:26:52Z
2020-09-06T10:29:05Z,42.805,6.029,13.3036,4.60021,2470.171,2020-9-06T12:29:56Z
2020-09-06T10:32:07Z,42.805,6.029,13.3053,4.60009,2470.133,2020-9-06T12:32:58Z
2020-09-06T10:35:10Z,42.805,6.029,13.3039,4.60008,2470.194,2020-9-06T12:36:01Z
2020-09-06T10:38:14Z,42.805,6.029,13.3048,4.60021,2470.147,2020-9-06T12:39:05Z
2020-09-06T10:41:17Z,42.805,6.029,13.3041,4.60011,2470.156,2020-9-06T12:42:08Z
2020-09-06T10:44:20Z,42.805,6.029,13.3032,4.60061,2470.171,2020-9-06T12:45:11Z
2020-09-06T10:47:24Z,42.805,6.029,13.3024,4.60016,2470.133,2020-9-06T12:48:15Z
2020-09-06T10:50:27Z,42.805,6.029,13.3029,4.60016,2470.147,2020-9-06T12:51:18Z
2020-09-06T10:53:30Z,42.805,6.029,13.3026,4.60026,2470.156,2020-9-06T12:54:21Z
2020-09-06T10:56:34Z,42.805,6.029,13.3041,4.60035,2470.147,2020-9-06T12:57:25Z
2020-09-06T10:59:36Z,42.805,6.029,13.3056,4.60021,2470.147,2020-9-06T13:00:27Z
2020-09-06T11:02:38Z,42.805,6.029,13.3021,4.60029,2470.133,2020-9-06T13:03:29Z
2020-09-06T11:05:42Z,42.805,6.029,13.3043,4.60061,2470.147,2020-9-06T13:06:33Z
2020-09-06T11:08:45Z,42.805,6.029,13.3031,4.60046,2470.124,2020-9-06T13:09:36Z
2020-09-06T11:11:47Z,42.805,6.029,13.3041,4.60047,2470.147,2020-9-06T13:12:37Z
2020-09-06T11:14:51Z,42.805,6.029,13.3063,4.60032,2470.18,2020-9-06T13:15:42Z
2020-09-06T11:17:53Z,42.805,6.029,13.2996,4.60021,2470.147,2020-9-06T13:18:43Z
2020-09-06T11:20:56Z,42.805,6.029,13.3002,4.60062,2470.147,2020-9-06T13:21:47Z
2020-09-06T11:23:57Z,42.805,6.029,13.2971,4.60026,2470.1,2020-9-06T13:24:48Z
2020-09-06T11:27:02Z,42.805,6.029,13.2973,4.60051,2470.124,2020-9-06T13:27:53Z
2020-09-06T11:30:04Z,42.805,6.029,13.2977,4.60006,2470.11,2020-9-06T13:30:55Z
2020-09-06T11:33:08Z,42.805,6.029,13.2969,4.60009,2470.11,2020-9-06T13:33:59Z
2020-09-06T11:36:10Z,42.805,6.029,13.2975,4.60001,2470.147,2020-9-06T13:37:01Z
2020-09-06T11:39:13Z,42.805,6.029,13.2969,4.60000,2470.147,2020-9-06T13:40:04Z
2020-09-06T11:42:18Z,42.805,6.029,13.2971,4.59998,2470.133,2020-9-06T13:43:09Z
2020-09-06T11:45:20Z,42.805,6.029,13.2971,4.60001,2470.133,2020-9-06T13:46:11Z
2020-09-06T11:48:23Z,42.805,6.029,13.2970,4.59996,2470.124,2020-9-06T13:49:14Z
2020-09-06T11:51:27Z,42.805,6.029,13.2971,4.59999,2470.11,2020-9-06T13:52:18Z
2020-09-06T11:54:29Z,42.805,6.029,13.2976,4.59999,2470.133,2020-9-06T13:55:20Z
2020-09-06T11:57:32Z,42.805,6.029,13.2972,4.60014,2470.133,2020-9-06T13:58:23Z
2020-09-06T12:00:35Z,42.805,6.029,13.2976,4.60039,2470.11,2020-9-06T14:01:26Z
2020-09-06T12:03:40Z,42.805,6.029,13.2973,4.60049,2470.133,2020-9-06T14:04:31Z
2020-09-06T12:06:43Z,42.805,6.029,13.2999,4.60026,2470.063,2020-9-06T14:07:34Z
2020-09-06T12:09:48Z,42.805,6.029,13.3019,4.60024,2470.11,2020-9-06T14:10:39Z
2020-09-06T12:12:51Z,42.805,6.029,13.3040,4.60014,2470.087,2020-9-06T14:13:42Z
2020-09-06T12:15:53Z,42.805,6.029,13.3051,4.60020,2470.063,2020-9-06T14:16:44Z
2020-09-06T12:18:55Z,42.805,6.029,13.3054,4.60022,2470.1,2020-9-06T14:19:46Z
2020-09-06T12:21:58Z,42.805,6.029,13.2974,4.60061,2470.1,2020-9-06T14:22:49Z
2020-09-06T12:25:00Z,42.805,6.029,13.2974,4.60002,2470.063,2020-9-06T14:25:51Z
2020-09-06T12:28:04Z,42.805,6.029,13.3028,4.60000,2470.133,2020-9-06T14:28:55Z
2020-09-06T12:31:08Z,42.805,6.029,13.2971,4.60013,2470.063,2020-9-06T14:31:59Z
2020-09-06T12:34:12Z,42.805,6.029,13.2976,4.60004,2470.077,2020-9-06T14:35:03Z
2020-09-06T12:37:15Z,42.805,6.029,13.2976,4.60002,2470.087,2020-9-06T14:38:06Z
2020-09-06T12:40:19Z,42.805,6.029,13.2971,4.59991,2470.077,2020-9-06T14:41:10Z
2020-09-06T12:43:22Z,42.805,6.029,13.2969,4.59985,2470.11,2020-9-06T14:44:13Z
2020-09-06T12:46:25Z,42.805,6.029,13.2973,4.59986,2470.11,2020-9-06T14:47:16Z
2020-09-06T12:49:29Z,42.805,6.029,13.2971,4.59980,2470.1,2020-9-06T14:50:20Z
2020-09-06T12:52:32Z,42.805,6.029,13.2969,4.59993,2470.11,2020-9-06T14:53:23Z
2020-09-06T12:55:37Z,42.805,6.029,13.2968,4.59986,2470.063,2020-9-06T14:56:28Z
2020-09-06T12:58:42Z,42.805,6.029,13.2968,4.59978,2470.087,2020-9-06T14:59:32Z
2020-09-06T13:01:44Z,42.805,6.029,13.2971,4.59983,2470.1,2020-9-06T15:02:35Z
2020-09-06T13:04:47Z,42.805,6.029,13.2970,4.59983,2470.063,2020-9-06T15:05:38Z
2020-09-06T13:07:51Z,42.805,6.029,13.2968,4.59980,2470.063,2020-9-06T15:08:42Z
2020-09-06T13:10:55Z,42.805,6.029,13.2971,4.59978,2470.063,2020-9-06T15:11:46Z
2020-09-06T13:13:59Z,42.805,6.029,13.2971,4.59978,2470.04,2020-9-06T15:14:50Z
2020-09-06T13:17:03Z,42.805,6.029,13.2968,4.59984,2470.063,2020-9-06T15:17:54Z
2020-09-06T13:20:06Z,42.805,6.029,13.2967,4.59981,2470.04,2020-9-06T15:20:57Z
2020-09-06T13:23:10Z,42.805,6.029,13.2971,4.59980,2470.04,2020-9-06T15:24:01Z
2020-09-06T13:26:13Z,42.805,6.029,13.2971,4.59984,2470.053,2020-9-06T15:27:04Z
2020-09-06T13:29:15Z,42.805,6.029,13.2971,4.59981,2470.04,2020-9-06T15:30:06Z
2020-09-06T13:32:18Z,42.805,6.029,13.2970,4.59982,2470.087,2020-9-06T15:33:09Z
2020-09-06T13:35:20Z,42.805,6.029,13.2971,4.59981,2470.053,2020-9-06T15:36:11Z
2020-09-06T13:38:21Z,42.805,6.029,13.2973,4.59982,2470.063,2020-9-06T15:39:12Z
2020-09-06T13:41:22Z,42.805,6.029,13.2975,4.59982,2470.063,2020-9-06T15:42:13Z
2020-09-06T13:44:24Z,42.805,6.029,13.2969,4.59979,2470.03,2020-9-06T15:45:15Z
2020-09-06T13:47:27Z,42.805,6.029,13.2971,4.59978,2470.063,2020-9-06T15:48:18Z
2020-09-06T13:50:31Z,42.805,6.029,13.2968,4.59979,2470.063,2020-9-06T15:51:22Z
2020-09-06T13:53:35Z,42.805,6.029,13.2971,4.59978,2470.063,2020-9-06T15:54:26Z
2020-09-06T13:56:39Z,42.805,6.029,13.2969,4.59983,2470.04,2020-9-06T15:57:30Z
2020-09-06T13:59:42Z,42.805,6.029,13.2971,4.59981,2470.017,2020-9-06T16:00:33Z
2020-09-06T14:02:44Z,42.805,6.029,13.2971,4.59976,2470.04,2020-9-06T16:03:35Z
2020-09-06T14:05:47Z,42.805,6.029,13.2970,4.59976,2470.017,2020-9-06T16:06:38Z
2020-09-06T14:08:50Z,42.805,6.029,13.2967,4.59977,2470.03,2020-9-06T16:09:41Z
2020-09-06T14:11:54Z,42.805,6.029,13.2970,4.59978,2470.04,2020-9-06T16:12:45Z
2020-09-06T14:14:57Z,42.805,6.029,13.2970,4.59977,2470.03,2020-9-06T16:15:48Z
2020-09-06T14:18:02Z,42.805,6.029,13.2969,4.59976,2470.03,2020-9-06T16:18:53Z
2020-09-06T14:21:06Z,42.805,6.029,13.2973,4.59979,2470.04,2020-9-06T16:21:57Z
2020-09-06T14:24:10Z,42.805,6.029,13.2967,4.59977,2470.053,2020-9-06T16:25:01Z
2020-09-06T14:27:11Z,42.805,6.029,13.2967,4.59976,2470.04,2020-9-06T16:28:02Z
2020-09-06T14:30:12Z,42.805,6.029,13.2969,4.59980,2470.017,2020-9-06T16:31:03Z
2020-09-06T14:33:16Z,42.805,6.029,13.2971,4.59990,2470.04,2020-9-06T16:34:07Z
2020-09-06T14:36:19Z,42.805,6.029,13.2974,4.59978,2470.053,2020-9-06T16:37:10Z
2020-09-06T14:39:22Z,42.805,6.029,13.2966,4.59977,2470.003,2020-9-06T16:40:13Z
2020-09-06T14:42:24Z,42.805,6.029,13.2968,4.59977,2470.04,2020-9-06T16:43:15Z
2020-09-06T14:45:25Z,42.805,6.029,13.2969,4.59976,2470.017,2020-9-06T16:46:16Z
2020-09-06T14:48:27Z,42.805,6.029,13.2974,4.59979,2469.993,2020-9-06T16:49:18Z
2020-09-06T14:51:29Z,42.805,6.029,13.2971,4.59978,2470.03,2020-9-06T16:52:20Z
2020-09-06T14:54:34Z,42.805,6.029,13.2969,4.59977,2470.017,2020-9-06T16:55:25Z
2020-09-06T14:57:37Z,42.805,6.029,13.2971,4.59976,2470.017,2020-9-06T16:58:28Z
2020-09-06T15:00:42Z,42.805,6.029,13.2971,4.59978,2470.026,2020-9-06T17:01:33Z
2020-09-06T15:03:44Z,42.805,6.029,13.2970,4.59976,2470.017,2020-9-06T17:04:35Z
2020-09-06T15:06:47Z,42.805,6.029,13.2972,4.59975,2469.993,2020-9-06T17:07:38Z
2020-09-06T15:09:51Z,42.805,6.029,13.2971,4.59976,2470.03,2020-9-06T17:10:42Z
2020-09-06T15:12:54Z,42.805,6.029,13.2971,4.59982,2470.017,2020-9-06T17:13:45Z